{"data":{"norad_id":68443,"epoch":"2026-09-19T02:45:23.575680Z","epoch_age_seconds":188589,"freshness":"STALE","line1":"1 68443U 26067AD  26262.11485620  .00003474  00000+0  17250-3 0  9996","line2":"2 68443  97.4659 219.1591 0006384 100.4937 259.7016 15.18328641 26186","mean_motion":15.18328641,"eccentricity":0.0006384,"inclination_deg":97.4659,"raan_deg":219.1591,"arg_perigee_deg":100.4937,"mean_anomaly_deg":259.7016,"bstar":0.0001725,"rev_number":2618,"period_min":94.841127349846,"perigee_km":506.49360133664,"apogee_km":515.28951299843,"semimajor_km":6889.0285571675,"source":"CELESTRAK","updated_at":"2026-09-20T09:00:24.206120Z"}}